User: anonymous   Login
Location: Unspecified
(0.0000°N, 0.0000°E)
Time: 20:15:25
(UTC+00:00)
Language:

OBJECT H - Orbit

View from above orbital plane
View from above orbital plane
View from above satellite
View from above satellite

Ground track
Ground track

The orbit data is extracted from the following two-line orbital elements,

1 42832U 17042H   19341.44976021  .00000178  00000-0  23188-4 0  9996
2 42832  97.5438 227.2583 0013179 200.3833 159.6861 14.91219494130549
Epoch (UTC): 07 December 2019 10:47:39
Eccentricity: 0.0013179
inclination: 97.5438°
perigee height: 585 km
apogee height: 603 km
right ascension of ascending node: 227.2583°
argument of perigee: 200.3833°
revolutions per day: 14.91219494
mean anomaly at epoch: 159.6861°
orbit number at epoch: 13054

The dashed part of the orbit path shows where the satellite is in the earth's shadow,  

DLR